Tanana, AK

4:35 AM AKST on February 24, 2017 (GMT -0900)
Calhoun Memorial

Weather History for PATA - October, 2012

Change the Weather History Date:

Friday, October 26, 2012

  Actual Average Record
Temperature  
Mean Temperature 18 °F -  
Max Temperature 21 °F 21 °F 42 °F (2002)
Min Temperature 16 °F 5 °F -20 °F (1982)
Degree Days  
Heating Degree Days 46    
Moisture  
Dew Point 15 °F    
Average Humidity 86    
Maximum Humidity 93    
Minimum Humidity 78    
Precipitation  
Precipitation 0.01 in - - ()
Snow  
Snow 0.00 in - - ()
Snow Depth 2.00 in    
Sea Level Pressure  
Sea Level Pressure 30.51 in    
Wind  
Wind Speed 1 mph (East)    
Max Wind Speed 6 mph    
Max Gust Speed -    
Visibility 9 miles    
Events Snow    
Averages and records for this station are not official NWS values.
T = Trace of Precipitation, MM = Missing Value Source: NWS Daily Summary

Daily Weather History Graph

Daily Weather History Graph

Search for Another Location

Airport or City:

Trip Planner

Search our weather history database for the weather conditions in past years. The results will help you decide how hot, cold, wet, or windy it might be!

Date:

Astronomy

Oct. 26, 2012 Rise Set
Actual Time 9:40 AM AKDT 6:03 PM AKDT
Civil Twilight 8:46 AM AKDT 6:56 PM AKDT
Nautical Twilight 7:47 AM AKDT 7:55 PM AKDT
Astronomical Twilight 6:50 AM AKDT 8:52 PM AKDT
Moon 5:06 PM AKDT (10/26) 5:54 AM AKDT (10/26)
Length of Visible Light 10h 10m
Length of Day
8h 22m
Waxing Gibbous, 92% of the Moon is Illuminated
Oct 26
Waxing Gibbous
Oct 29
Full
Nov 6
Last Quarter
Nov 13
New
Nov 20
First Quarter

Hourly Weather History & Observations

Time (AKDT) Temp. Windchill Dew Point Humidity Pressure Visibility Wind Dir Wind Speed Gust Speed Precip Events Conditions
12:52 AM 19.0 °F - 14.0 °F 81% 30.58 in 10.0 mi Calm Calm - N/A   Overcast
1:52 AM 19.0 °F - 14.0 °F 81% 30.57 in 3.0 mi Calm Calm - 0.00 in Snow Light Snow
2:52 AM 19.0 °F - 15.1 °F 85% 30.58 in 2.5 mi Calm Calm - 0.00 in Snow Light Snow
3:05 AM 17.6 °F - 15.8 °F 93% 30.55 in 2.0 mi Calm Calm - 0.00 in Snow Light Snow
3:30 AM 17.6 °F 12.3 °F 15.8 °F 93% 30.54 in 6.0 mi South 3.5 mph - 0.01 in Snow Light Snow
3:37 AM 17.6 °F 12.3 °F 14.0 °F 86% 30.55 in 9.0 mi South 3.5 mph - 0.01 in Snow Light Snow
3:52 AM 17.1 °F - 14.0 °F 88% 30.57 in 9.0 mi Calm Calm - 0.01 in   Mostly Cloudy
4:52 AM 16.0 °F 10.4 °F 12.9 °F 88% 30.56 in 9.0 mi North 3.5 mph - 0.00 in Snow Light Snow
5:52 AM 18.0 °F - 15.1 °F 88% 30.56 in 10.0 mi Calm Calm - N/A   Overcast
6:52 AM 18.0 °F - 15.1 °F 88% 30.55 in 10.0 mi Calm Calm - N/A   Overcast
7:37 AM 17.6 °F - 15.8 °F 93% 30.52 in 10.0 mi Calm Calm - N/A   Overcast
7:52 AM 19.0 °F - 15.1 °F 85% 30.54 in 10.0 mi Calm Calm - N/A   Overcast
8:52 AM 19.0 °F 13.9 °F 15.1 °F 85% 30.54 in 10.0 mi SE 3.5 mph - N/A   Overcast
9:52 AM 19.0 °F - 15.1 °F 85% 30.53 in 10.0 mi Calm Calm - N/A   Overcast
9:59 AM 19.4 °F - 15.8 °F 86% 30.51 in 10.0 mi Calm Calm - N/A   Overcast
10:52 AM 19.0 °F - 16.0 °F 88% 30.53 in 10.0 mi Calm Calm - N/A   Overcast
11:52 AM 19.0 °F 12.3 °F 16.0 °F 88% 30.52 in 10.0 mi ESE 4.6 mph - N/A   Mostly Cloudy
12:52 PM 19.9 °F - 16.0 °F 85% 30.52 in 10.0 mi Calm Calm - N/A   Mostly Cloudy
1:52 PM 21.0 °F - 16.0 °F 81% 30.52 in 10.0 mi Calm Calm - N/A   Mostly Cloudy
2:52 PM 21.0 °F 16.2 °F 16.0 °F 81% 30.51 in 10.0 mi SE 3.5 mph - N/A   Mostly Cloudy
3:52 PM 21.9 °F 17.2 °F 16.0 °F 78% 30.49 in 10.0 mi ESE 3.5 mph - N/A   Mostly Cloudy
4:52 PM 21.0 °F 16.2 °F 17.1 °F 85% 30.48 in 10.0 mi SE 3.5 mph - N/A   Mostly Cloudy
5:52 PM 19.9 °F - 16.0 °F 85% 30.46 in 10.0 mi Calm Calm - N/A   Mostly Cloudy
6:00 PM 17.6 °F - 15.8 °F 93% 30.44 in 10.0 mi Calm Calm - N/A   Overcast
6:52 PM 16.0 °F - 12.0 °F 84% 30.47 in 10.0 mi Calm Calm - N/A   Overcast
7:52 PM 17.1 °F - 14.0 °F 88% 30.47 in 10.0 mi Calm Calm - N/A   Overcast
8:52 PM 19.9 °F 13.4 °F 16.0 °F 85% 30.45 in 10.0 mi NNE 4.6 mph - N/A   Overcast
9:52 PM 19.9 °F 13.4 °F 17.1 °F 89% 30.44 in 10.0 mi NNE 4.6 mph - N/A   Overcast
10:52 PM 18.0 °F 12.7 °F 15.1 °F 88% 30.43 in 10.0 mi NE 3.5 mph - N/A   Overcast
11:52 PM 16.0 °F 7.4 °F 12.9 °F 88% 30.42 in 10.0 mi NNE 5.8 mph - N/A   Overcast